Tracking 28125 objects as of 3-Oct-2023
HD Live streaming from Space Station
objects crossing your sky now

CZ-3B R/B

Track CZ-3B R/B now!


NORAD ID: 25405
Int'l Code: 1998-044B
Perigee: 601.9 km
Apogee: 35,761.7 km
Inclination: 19.0 °
Period: 638.1 minutes
Semi major axis: 24552 km
RCS: 22.0892 m2 (large)
Launch date: July 18, 1998
Source: People's Republic of China (PRC)
Launch site: Xichang Space Center, China (XSC)

Note: This is a ROCKET BODY
Your satellite tracking list
Your tracking list is empty




NASA's NSSDC Master Catalog

Two Line Element Set (TLE):
1 25405U 98044B   23274.63693696 -.00000014  00000-0  17400-2 0  9997
2 25405  19.0414 354.3283 7160049 148.7273   0.7175  2.25658700207738
Source of the keplerian elements: AFSPC